Location: Unspecified
(47.5840°N, 122.3000°W)
Time: 08:06:58
(UTC+00:00)

Cosmos 841 Rocket - Pass Details

Date: 09 December 2025
Orbit: 743 x 767 km, 74.0° (Epoch: 13 January)

Event Time Altitude Azimuth Distance (km) Brightness Sun altitude
Exits shadow 12:59:24 33° 185° (S) 1,261 4.5 -27.0°
Maximum altitude 13:01:44 72° 109° (ESE) 806 3.6 -26.6°
Drops below altitude 10° 13:06:58 10° 26° (NNE) 2,316 6.2 -25.7°
Sets 13:09:22 0° 25° (NNE) 3,247 7.0 -25.3°
